Theta_e
314 314 318 320 323 322 325 330 332 334 328 323 323 324 322 322 327 328 328 327 329 328 328 333 334 335 334 337 341 340 338 342 341 342 346 338 336 338 336 338 336 336 333 327 327 331 331 334 335 335 334 335 337 338 338 339 338 337 337 337 337 337 337 334 331 332 332 332 332 332 332 333 332 331 331 331 331 331 332 332 332 331 332 332 332 332 332 332 332 331 331 331 330 331 331 331 330
315 316 319 320 323 318 326 333 334 338 335 324 323 325 320 320 325 329 335 331 330 333 333 337 339 338 336 336 339 339 339 337 333 336 339 335 338 338 337 338 336 336 331 325 327 328 331 334 335 335 334 336 338 338 339 339 338 338 336 335 336 336 335 333 332 333 332 331 330 330 332 332 331 331 331 331 331 331 331 331 331 331 331 331 331 331 331 332 331 330 331 332 331 331 331 330 329
315 319 320 320 322 320 329 331 329 333 328 325 332 330 320 322 329 334 337 331 331 334 334 335 340 339 338 343 340 340 340 335 333 336 337 337 338 337 338 337 336 335 328 324 325 327 332 334 334 334 335 338 338 339 339 338 339 338 337 335 335 336 334 333 332 332 332 331 330 331 332 332 331 331 332 331 331 331 331 331 331 331 330 330 330 331 332 332 331 331 332 332 331 330 329 328 327
317 321 319 320 324 329 340 333 335 334 322 326 330 327 327 329 332 331 330 329 332 334 331 332 340 334 337 349 340 338 339 336 337 338 338 338 338 337 337 336 336 333 325 323 324 329 333 334 333 334 337 339 339 339 339 338 338 338 337 334 332 333 332 332 332 332 332 332 332 332 330 331 331 331 331 331 331 331 331 331 330 330 330 330 330 331 332 331 331 331 331 331 330 328 327 327 327
318 321 317 320 326 331 337 328 332 330 323 330 323 324 336 333 329 328 327 326 326 327 324 332 341 333 334 341 336 340 340 337 337 337 338 337 337 336 336 336 335 329 323 321 326 332 334 335 334 335 338 338 339 338 338 338 338 337 334 330 327 328 330 331 332 332 331 331 332 331 329 330 331 331 330 329 330 330 330 330 330 330 330 330 330 331 331 331 331 332 331 331 330 328 327 327 327
319 320 317 318 319 322 328 322 326 328 328 334 323 328 335 329 329 329 327 322 324 326 326 334 342 338 337 337 334 339 336 336 338 337 338 337 337 336 335 336 333 326 320 320 328 334 335 336 335 335 338 337 338 337 338 338 337 335 332 329 325 326 331 332 332 330 329 331 331 330 330 331 331 330 330 329 330 330 329 330 330 330 330 330 330 330 331 331 330 331 331 330 330 328 328 328 328
318 318 321 321 318 322 331 326 332 336 325 324 324 330 329 327 329 327 325 322 325 329 332 335 338 341 340 335 334 335 333 335 337 337 338 337 336 335 335 336 330 322 319 322 330 335 334 335 334 335 337 336 337 337 337 337 335 333 331 330 324 327 332 332 332 330 329 332 331 331 330 330 330 329 330 330 331 330 330 329 329 329 329 328 329 330 331 331 330 330 330 330 329 328 328 328 327
319 321 326 329 325 328 335 326 332 336 319 316 322 328 327 326 327 326 326 325 325 331 337 333 333 342 337 334 338 335 332 335 336 337 337 336 335 335 336 335 326 319 320 324 331 334 333 335 334 334 335 335 336 336 337 335 333 332 331 330 325 327 331 331 331 330 331 331 330 331 330 328 328 328 329 330 330 330 330 330 329 329 329 329 329 330 331 331 330 330 330 328 328 328 328 327 326
318 320 325 327 324 328 336 328 323 325 320 319 321 326 327 325 325 325 326 326 329 335 336 329 330 339 337 339 342 335 334 336 336 337 336 335 336 335 335 334 323 317 320 324 330 333 332 334 333 333 333 334 335 335 336 335 332 332 332 331 327 327 331 330 329 331 332 330 330 331 329 327 327 328 329 329 329 329 329 329 329 329 328 328 329 330 330 330 330 330 328 327 328 328 327 326 325
318 319 323 327 328 322 325 330 326 320 319 322 322 325 327 323 322 322 326 326 329 332 329 328 335 338 339 342 340 334 336 337 336 337 336 336 336 335 336 332 321 316 319 323 329 331 332 333 332 332 332 333 334 334 335 335 333 333 332 331 328 326 330 330 329 331 330 328 329 330 329 327 327 328 329 328 329 328 328 328 328 329 327 327 328 329 330 330 329 328 327 327 327 326 326 326 325
325 328 332 331 329 321 320 331 336 329 321 321 322 324 324 321 321 321 324 324 325 331 329 333 342 341 339 338 337 335 335 337 337 337 336 336 336 335 336 330 319 316 317 321 326 329 331 331 331 331 332 333 333 334 334 334 334 333 330 330 327 324 327 329 328 330 329 327 328 329 329 328 327 327 329 328 328 328 328 328 328 327 326 326 328 328 329 329 329 327 326 326 326 325 325 325 325
323 333 344 336 326 324 324 329 332 335 329 324 323 322 322 319 319 322 324 324 328 335 334 334 340 342 342 337 336 334 334 338 336 336 337 336 336 334 336 329 318 317 316 318 323 326 328 329 330 330 331 331 331 334 334 334 334 333 331 330 327 323 327 330 328 329 329 329 330 329 329 329 326 326 329 328 328 328 328 328 327 327 326 327 327 326 328 328 328 327 326 325 325 325 325 325 324
327 333 339 326 323 325 324 325 325 330 330 328 325 319 318 318 320 325 327 326 329 334 330 329 335 344 346 337 336 334 336 338 335 337 337 336 335 335 336 327 318 317 316 317 319 323 326 328 328 328 328 327 328 331 333 334 333 332 331 330 327 324 328 329 328 328 328 328 329 329 329 329 325 324 328 328 328 327 326 326 326 326 326 326 326 326 327 327 327 326 325 325 325 325 324 324 324
326 336 336 320 321 327 325 324 323 325 328 329 323 317 316 318 321 324 327 328 329 329 323 324 332 342 340 338 340 336 336 337 335 337 336 337 335 335 336 327 318 318 317 315 317 320 324 326 326 327 327 326 327 328 331 333 333 332 331 328 324 325 328 328 328 327 326 327 328 328 328 328 325 322 324 325 326 325 325 327 327 327 326 326 326 326 326 325 325 325 324 324 325 325 324 324 324
321 336 340 327 323 325 324 320 322 325 330 328 318 317 318 315 320 324 325 327 327 321 321 325 329 331 332 344 348 336 335 336 335 337 336 337 335 335 336 327 320 319 318 316 315 317 322 325 325 327 329 329 328 327 327 330 331 331 330 325 320 323 326 326 327 327 326 327 328 328 327 327 326 324 323 322 322 322 323 323 325 326 326 326 325 324 324 323 323 323 323 323 324 324 324 324 323
323 336 334 327 323 321 321 318 321 325 329 327 315 316 320 314 316 321 317 322 327 322 328 332 325 326 330 342 341 332 335 336 335 337 336 336 335 336 335 328 320 320 319 317 315 315 321 323 324 328 330 330 329 327 326 327 328 329 327 322 320 321 322 323 324 326 325 325 327 327 326 326 325 324 323 321 321 321 322 321 320 324 325 324 323 322 321 321 321 321 322 322 323 323 322 323 323
323 334 332 326 324 324 325 319 320 326 328 325 315 315 320 316 313 316 315 324 336 332 337 335 324 328 331 332 330 330 337 336 336 337 336 336 335 335 334 328 322 322 322 319 317 315 318 321 323 326 328 329 327 324 326 326 325 325 324 322 321 320 321 322 320 322 323 323 325 325 325 324 323 323 322 321 321 321 322 320 318 320 322 321 319 319 319 320 320 320 320 320 319 319 319 320 321
327 333 329 325 329 329 330 324 321 323 323 320 317 318 320 318 315 316 319 330 337 332 335 336 329 329 329 328 329 333 337 336 337 337 337 336 335 335 333 330 325 324 324 321 319 316 316 318 321 323 324 325 323 320 321 324 324 324 324 323 322 319 320 321 320 321 322 322 323 323 322 321 320 320 320 320 321 321 320 320 319 317 318 318 317 317 318 318 318 317 317 317 317 317 318 319 320
331 329 322 329 335 330 327 324 320 318 318 320 319 318 317 318 319 317 320 331 334 332 334 335 336 335 331 329 331 335 336 336 337 336 337 336 335 335 333 331 326 325 324 322 321 319 317 317 318 319 320 321 321 320 318 320 323 324 323 322 321 319 318 319 319 320 321 321 321 321 320 320 319 319 319 319 319 319 319 319 318 316 316 316 317 317 317 317 317 317 317 317 317 318 319 320 321
323 321 322 333 332 325 324 322 321 318 317 321 319 316 315 317 318 317 322 331 333 334 335 335 340 343 336 331 330 334 336 336 337 337 337 336 336 335 334 332 328 325 324 323 322 322 320 319 318 318 318 318 319 319 318 317 318 319 319 318 319 319 318 317 316 317 318 320 320 320 320 319 319 318 317 317 317 317 317 319 318 316 316 315 316 317 317 317 317 317 317 317 318 319 320 320 321
316 318 325 329 320 318 320 320 321 319 316 318 319 317 315 316 315 317 325 331 331 331 332 333 340 345 336 330 330 332 335 336 336 338 337 336 336 336 335 334 330 327 325 324 323 323 322 321 320 319 318 318 317 317 317 317 316 316 316 315 316 317 319 317 315 315 316 317 319 318 318 317 318 317 316 315 316 315 315 317 317 316 316 315 316 316 317 317 317 317 317 318 319 320 321 321 321
315 318 324 324 317 314 316 317 317 316 314 316 318 317 316 315 313 319 327 327 327 326 326 329 334 339 334 330 330 332 334 335 337 337 337 337 336 336 336 334 333 330 327 326 325 324 324 322 322 321 320 320 319 318 317 316 316 316 316 315 315 315 317 318 315 314 315 317 317 317 316 318 319 320 319 318 317 314 312 314 316 316 315 315 315 316 316 316 317 317 318 320 321 321 321 321 321
314 316 320 320 315 313 314 314 314 314 315 317 317 316 316 315 314 319 324 322 320 317 317 324 329 330 331 330 330 332 333 334 336 337 337 337 336 336 336 335 334 332 330 329 328 327 326 325 323 322 322 321 321 320 319 317 317 317 317 317 316 315 315 316 315 314 318 320 318 317 319 320 322 322 321 322 320 317 313 311 313 314 314 314 314 315 316 316 316 316 317 319 320 320 319 320 320
312 315 317 315 312 311 314 314 315 316 316 317 315 314 315 316 316 316 321 322 318 315 312 317 324 326 329 330 330 331 333 334 335 336 336 337 336 336 336 335 334 333 333 332 330 330 329 328 326 325 323 323 322 322 321 320 319 318 317 318 317 317 316 315 314 314 319 323 322 320 321 323 324 323 323 323 322 321 316 312 313 314 313 313 313 314 315 316 316 316 316 317 318 318 318 319 319
313 315 314 311 312 311 313 314 316 316 314 315 313 315 316 314 314 315 320 320 317 319 318 321 325 328 330 330 331 330 331 333 334 335 335 336 336 336 336 335 335 334 333 333 332 332 332 331 330 328 327 325 324 323 323 322 322 321 320 319 319 318 318 317 316 315 316 322 325 324 324 325 325 325 325 324 324 323 320 317 318 318 317 314 315 316 316 317 317 318 318 319 320 320 320 320 319
312 311 311 310 312 311 311 313 315 315 314 314 314 315 314 311 311 316 318 317 321 328 330 331 330 332 332 331 330 329 330 331 332 334 334 335 335 335 335 336 335 335 334 333 334 334 333 333 332 331 330 328 327 326 326 324 323 323 323 322 321 321 320 320 319 317 315 318 324 325 326 326 326 326 326 326 325 324 323 322 322 323 322 320 320 320 320 320 320 321 321 321 321 320 320 320 320
310 309 311 311 312 313 313 313 313 314 313 313 315 314 313 312 311 317 316 318 330 339 336 331 332 335 332 331 331 329 329 330 331 333 333 334 334 335 335 335 335 335 334 333 333 334 334 334 333 332 331 331 329 329 329 328 327 326 326 325 324 324 324 323 322 320 317 317 321 324 326 326 326 326 326 326 326 324 323 324 324 324 324 324 323 323 323 323 323 323 323 322 322 321 322 322 322
311 311 311 313 314 314 314 313 312 314 312 313 316 313 314 312 313 318 314 316 328 343 340 330 332 334 331 332 331 328 329 329 331 331 332 333 333 334 334 334 334 334 333 333 332 334 335 334 334 333 333 332 331 331 331 331 330 329 330 329 329 328 327 327 325 323 321 319 320 323 325 325 326 326 326 327 326 325 324 324 325 326 326 325 325 324 324 324 324 324 324 324 324 323 323 323 324
312 310 312 314 315 316 316 314 314 314 312 314 315 315 315 313 315 315 313 319 327 340 343 332 330 332 330 331 330 329 328 329 330 329 331 332 332 333 333 333 333 333 333 332 333 333 335 335 335 334 334 334 333 333 333 332 332 332 332 332 332 331 330 329 328 326 324 322 321 322 324 325 326 327 328 328 327 326 325 325 326 326 326 326 325 325 324 324 325 325 325 325 325 324 324 324 324
313 310 310 313 315 317 315 312 313 314 313 313 314 316 320 318 316 312 316 326 332 340 343 329 328 331 329 330 330 330 328 327 329 329 331 331 332 332 332 333 332 333 332 332 334 334 334 335 334 335 334 335 334 334 334 334 334 333 333 333 333 333 332 331 329 328 327 326 325 324 325 326 327 328 328 328 328 327 327 326 326 326 326 326 326 326 325 325 325 325 325 325 325 324 324 324 324
314 312 312 315 315 319 319 314 315 314 312 313 313 316 320 318 316 313 319 329 332 338 342 329 328 330 329 330 329 330 328 327 329 329 330 330 331 332 331 333 332 333 333 333 334 334 335 334 334 335 335 336 335 335 335 335 335 334 334 334 334 334 333 332 331 330 329 329 328 327 328 328 328 329 329 329 328 328 328 327 326 326 326 326 326 326 326 325 325 325 324 324 324 324 323 323 323
314 315 320 319 314 320 325 317 315 315 312 312 313 316 317 316 317 312 314 324 329 330 337 331 330 330 329 330 328 330 328 326 328 328 330 330 330 331 331 332 332 332 333 334 334 334 335 335 335 335 335 336 336 336 336 336 336 335 335 335 334 334 334 333 332 331 331 331 330 329 329 329 329 329 329 329 328 328 328 327 326 326 326 326 326 326 326 325 325 324 324 325 323 323 323 323 323
316 315 320 322 316 317 320 315 313 316 313 312 313 316 319 315 315 311 309 320 328 326 330 331 330 329 328 329 328 329 328 327 327 327 329 329 330 330 331 331 331 332 332 333 334 334 334 334 335 335 335 336 336 337 337 337 337 336 336 336 335 334 334 334 333 332 332 332 331 330 330 329 329 329 329 329 329 328 328 327 327 326 326 326 326 326 326 326 325 325 326 324 323 323 323 324 325
320 313 315 320 316 314 316 316 313 313 314 314 313 314 318 316 314 312 310 316 324 325 324 326 327 328 327 327 327 327 328 328 327 326 328 329 329 330 331 331 331 331 332 332 333 333 334 334 334 334 335 335 336 336 336 336 337 336 337 336 336 335 335 335 334 334 333 332 332 331 331 330 330 329 329 329 328 328 327 326 326 325 325 325 324 324 324 324 325 325 324 323 323 323 323 324 325
322 316 314 317 315 313 315 317 312 311 314 315 315 314 314 315 314 313 311 313 321 324 319 319 323 325 325 325 326 326 327 327 326 325 327 327 329 329 329 330 331 331 331 331 332 332 332 333 333 333 333 334 335 336 336 336 336 337 337 337 336 336 336 335 335 334 334 333 333 332 332 331 330 330 329 329 329 328 326 325 325 325 325 325 324 325 324 323 323 323 322 322 322 322 323 324 324
321 318 316 316 316 314 314 316 312 311 314 315 316 315 314 314 314 313 312 310 315 318 315 315 316 318 321 322 322 323 324 326 325 324 325 326 327 328 329 329 330 330 331 331 331 331 332 332 332 332 332 333 334 335 336 336 336 336 336 336 336 336 336 336 335 335 334 334 333 333 332 331 331 330 330 330 329 328 327 326 326 326 325 325 326 326 324 322 322 323 322 322 322 323 323 324 324
317 316 314 314 314 314 314 315 313 311 313 315 315 314 314 314 314 313 311 310 312 314 314 313 312 312 314 317 318 319 320 321 320 320 322 323 325 326 327 328 329 329 330 330 330 330 331 331 332 332 332 332 333 334 335 335 335 335 335 335 335 335 336 336 335 335 334 334 334 333 332 332 331 330 330 330 330 329 328 328 327 327 327 327 327 326 325 323 323 324 323 322 323 324 324 324 325
313 314 312 312 313 313 313 313 313 312 312 315 315 313 313 313 312 312 310 311 313 315 315 314 313 311 310 311 313 314 315 314 313 313 315 319 322 323 325 326 328 329 329 330 330 330 330 331 331 331 332 332 332 333 333 334 335 334 334 334 334 334 334 335 335 334 334 334 334 333 333 332 332 332 331 331 330 330 329 329 329 328 328 328 327 327 327 326 325 326 324 323 323 325 325 325 325
315 314 311 313 313 313 313 312 312 312 312 317 316 313 314 313 312 311 310 312 313 314 314 314 313 312 311 310 310 310 311 313 312 310 310 313 317 319 322 324 326 327 328 329 329 330 330 330 330 331 331 331 331 331 332 333 334 334 334 334 333 333 333 334 334 334 334 334 334 333 332 332 332 331 331 331 331 331 330 330 329 329 329 328 327 326 327 327 327 327 326 325 325 325 325 324 324
316 314 311 313 313 313 314 312 311 311 311 313 314 314 315 313 312 314 312 311 312 313 313 313 312 313 313 311 310 309 310 311 311 311 309 308 312 316 320 322 324 326 327 328 329 329 330 329 330 330 330 330 330 331 331 332 333 333 333 333 333 333 333 333 334 334 334 334 334 333 333 332 330 329 329 329 330 331 330 330 329 328 327 326 324 324 325 326 327 327 326 326 326 326 326 324 324
316 313 312 312 312 311 313 313 313 313 312 312 313 315 316 316 316 317 314 310 310 311 311 312 312 312 311 311 311 311 310 310 310 312 310 306 308 313 317 319 322 324 326 327 328 328 329 329 329 330 330 330 330 331 331 331 332 332 333 333 333 333 333 333 333 333 333 333 334 334 333 332 330 329 328 327 328 328 328 329 330 328 325 325 324 325 327 327 328 328 327 327 327 326 325 324 323
317 314 312 310 310 309 312 316 315 316 318 315 313 316 323 326 323 319 316 313 311 311 310 311 311 310 310 310 311 311 310 310 309 310 308 306 306 309 313 317 320 322 324 325 326 327 328 328 329 329 330 330 330 331 331 331 331 332 332 332 332 332 332 332 332 332 333 333 333 333 333 331 330 328 327 329 330 327 327 328 328 326 325 325 327 328 328 328 328 328 325 325 326 325 324 323 323
317 316 313 311 311 310 311 315 314 317 320 313 310 316 324 325 322 319 318 317 316 312 311 311 310 309 310 310 311 310 310 310 309 308 306 305 306 307 309 314 318 320 321 322 325 326 327 327 327 328 329 330 330 331 331 331 331 332 332 332 332 332 332 332 332 332 332 332 332 332 331 330 329 327 327 330 331 328 328 329 329 328 328 328 329 329 328 327 326 325 323 324 325 324 323 322 321
317 316 316 315 313 312 312 313 315 319 319 314 312 315 317 317 317 317 316 317 318 314 312 313 311 310 309 309 310 310 310 310 310 310 308 305 304 305 307 310 314 317 317 321 324 325 327 326 327 328 329 329 330 331 331 331 331 331 332 332 332 332 332 332 332 331 331 331 331 330 330 329 327 326 326 329 331 330 329 329 329 330 329 328 328 327 326 325 324 323 323 324 324 323 322 321 320
316 317 319 317 315 315 315 315 316 316 315 316 317 313 314 319 322 321 314 312 315 315 314 315 314 313 312 309 309 310 310 310 310 311 309 305 303 304 307 308 310 314 317 320 323 325 326 326 327 328 328 329 330 331 331 331 332 332 331 332 332 332 332 332 332 331 330 330 330 330 330 329 327 326 327 330 330 329 329 329 329 329 328 328 326 324 323 323 323 323 323 323 322 322 320 320 319
314 317 319 317 319 319 316 318 317 313 313 317 319 315 312 320 328 323 315 312 315 315 314 313 313 314 312 310 310 309 309 310 311 310 305 303 304 304 305 306 308 310 314 318 321 324 325 326 327 328 328 329 329 331 331 331 332 332 331 331 332 332 332 332 331 331 330 330 330 330 329 328 327 327 328 329 329 328 328 328 327 327 327 326 325 323 323 323 323 322 322 321 321 320 319 319 318
313 317 319 317 321 320 318 324 320 313 315 316 319 318 311 316 326 322 314 314 316 315 314 313 313 314 313 312 312 310 309 309 308 308 303 301 303 304 304 305 307 308 311 315 319 322 324 326 327 328 328 329 329 330 331 331 331 331 331 331 331 332 332 331 330 330 330 330 330 330 329 329 328 326 327 328 328 328 328 326 326 325 325 325 324 323 322 322 322 321 320 320 319 318 318 317 316
315 319 319 316 322 321 319 326 319 314 318 314 314 316 311 313 321 318 315 315 314 313 313 314 315 314 314 317 319 315 312 311 308 307 304 302 303 303 304 305 306 308 310 312 317 320 323 325 326 327 328 328 329 330 330 331 331 331 331 331 332 332 331 331 331 331 330 330 330 329 328 328 328 327 327 327 326 327 328 328 327 325 324 323 323 322 321 320 320 320 319 318 317 316 316 314 312
314 317 316 315 320 319 318 321 317 316 318 311 310 313 312 312 314 315 315 313 312 311 310 312 314 313 314 317 317 314 313 315 315 311 307 308 306 303 304 306 307 308 310 312 316 319 322 324 325 326 328 328 329 329 330 330 330 331 331 331 331 331 331 331 331 331 331 330 330 329 328 327 327 327 327 327 327 327 328 327 326 324 323 321 320 319 318 318 317 317 317 316 315 314 312 310 308
312 313 315 316 317 318 317 317 317 318 318 311 308 311 313 315 314 315 315 311 313 313 309 310 311 310 310 310 308 310 311 314 319 318 313 313 308 303 305 307 307 308 310 313 316 319 322 323 324 326 327 328 328 329 329 330 330 330 331 331 331 331 331 331 331 331 331 330 330 329 328 328 328 327 326 327 327 327 325 324 323 322 321 319 317 316 315 315 315 314 314 314 312 310 307 303 300
312 314 316 317 318 320 319 319 319 320 319 313 308 311 319 321 316 314 313 312 314 314 311 310 309 308 307 307 309 312 312 314 321 323 319 312 304 303 307 307 308 309 310 312 315 318 320 322 324 325 325 327 327 328 329 329 330 330 330 331 331 331 331 331 331 331 331 331 330 329 329 328 328 327 327 326 326 324 323 322 321 320 319 317 315 313 312 311 311 311 310 308 305 301 298 296 294
314 317 318 316 318 322 320 318 319 319 318 315 311 314 321 320 313 311 310 311 312 313 311 311 310 309 309 314 317 316 315 319 325 326 323 313 303 305 308 307 309 310 309 311 313 314 317 319 322 323 325 326 326 327 328 328 329 329 330 330 330 331 330 330 331 330 331 330 330 330 329 328 328 327 327 325 324 323 322 321 320 319 317 315 312 309 307 306 304 303 301 299 295 294 293 292 292
315 314 315 314 316 322 321 315 312 312 315 317 313 315 319 317 313 314 313 312 313 313 311 312 314 313 315 321 322 319 318 320 324 324 321 313 304 306 309 309 310 311 311 312 311 312 313 314 317 319 321 323 324 326 327 327 328 328 329 330 329 330 330 330 330 330 330 330 329 329 328 328 328 327 326 324 322 321 320 320 319 317 315 313 310 306 303 300 297 295 294 293 293 292 292 292 292
316 316 316 313 314 320 322 318 314 311 314 319 317 314 316 317 316 319 318 313 313 314 311 312 315 318 320 323 322 321 319 318 318 317 314 307 303 307 310 310 311 312 312 312 311 312 312 311 312 313 315 318 320 323 325 326 327 328 328 328 328 329 329 329 329 330 330 329 328 328 328 328 326 324 324 322 321 320 319 318 317 315 313 311 309 305 299 295 293 293 292 293 292 292 292 292 292
315 318 316 315 317 317 317 317 317 314 313 318 320 314 312 315 317 320 317 313 315 314 312 313 314 315 317 320 322 321 319 319 319 318 319 311 305 308 311 311 312 312 312 312 312 312 312 312 311 311 311 312 314 317 320 323 325 326 328 328 328 328 328 328 329 329 329 329 328 328 326 326 325 322 322 321 320 318 317 316 314 312 310 310 307 301 295 292 292 293 292 293 292 292 292 292 291
312 314 312 313 318 318 317 316 316 318 316 318 321 317 314 316 318 320 314 311 314 312 311 314 315 316 316 317 320 321 321 324 321 319 323 315 305 308 311 312 313 312 313 313 313 313 313 313 312 312 311 311 311 313 316 319 322 324 325 326 327 327 327 328 328 328 328 328 327 327 325 325 323 321 321 320 318 317 315 314 312 309 308 307 302 296 292 292 292 292 292 293 292 292 292 291 290
312 314 313 311 312 315 318 316 314 319 320 319 318 316 318 318 316 316 313 312 313 311 310 313 316 319 318 314 314 314 317 321 318 316 320 313 304 307 311 311 312 313 313 314 314 314 315 315 314 313 312 311 310 312 315 318 320 322 323 324 325 326 326 327 327 327 327 326 326 325 325 323 322 321 320 319 317 315 313 311 308 306 305 301 296 292 291 292 292 293 292 292 292 291 291 290 289
314 314 314 313 313 316 317 314 313 314 316 320 316 311 316 320 314 311 312 313 311 312 311 313 315 317 316 313 309 308 310 315 315 315 318 309 301 305 309 309 311 312 313 313 314 314 314 315 314 312 311 311 311 312 316 318 320 321 322 323 325 325 325 326 326 325 325 325 324 324 323 322 321 320 318 317 315 312 310 308 305 302 298 294 292 291 292 292 292 293 292 291 291 290 290 289 289
Wind_Speed
6 4 3 2 1 1 2 4 2 3 3 2 2 0 2 2 1 2 2 0 0 1 1 1 2 5 3 3 6 5 3 2 4 4 3 2 10 19 16 12 17 17 14 13 12 13 14 11 8 8 8 9 10 10 10 10 12 13 13 13 13 12 10 10 12 15 15 14 14 15 16 16 16 16 16 16 16 16 16 16 15 15 15 15 15 17 18 17 18 18 17 17 17 16 17 17 17
5 4 3 1 2 2 1 3 3 3 5 2 2 2 2 1 1 5 5 3 3 2 2 4 5 5 4 4 6 4 3 2 3 3 1 7 14 15 13 15 18 16 14 13 13 14 15 11 8 7 7 9 10 11 11 12 13 13 13 13 13 12 10 11 13 14 13 13 14 15 15 15 15 15 16 15 16 16 16 16 16 16 16 16 17 17 17 17 17 17 17 16 16 16 16 16 16
4 3 3 1 2 4 2 4 2 1 4 1 4 3 1 2 5 6 7 5 5 5 3 3 4 4 3 4 4 3 1 1 3 1 4 11 12 11 15 18 17 14 13 13 12 14 14 11 8 7 8 10 11 11 12 12 13 13 13 12 12 11 11 13 13 12 12 13 14 15 14 15 15 15 15 16 16 16 16 16 16 16 16 17 17 17 17 17 17 16 16 15 15 15 15 15 16
3 3 2 3 2 4 3 4 2 3 1 2 3 5 2 5 7 5 4 5 5 4 2 2 3 2 3 4 2 2 1 1 2 2 6 10 10 13 19 18 16 13 13 13 13 15 14 12 9 8 10 11 12 12 12 13 13 13 12 11 11 11 11 13 12 13 13 13 14 14 14 14 14 15 15 15 16 15 16 16 16 16 16 17 17 17 16 16 16 16 15 15 14 14 14 15 15
3 4 3 2 2 2 3 3 2 3 2 3 1 5 5 5 6 5 2 3 3 1 0 1 2 2 2 3 1 2 1 3 2 3 8 9 12 17 19 17 15 13 13 13 15 16 14 12 9 8 10 11 12 13 13 13 13 11 10 10 10 11 12 13 12 13 13 12 13 13 13 13 14 14 14 15 15 15 15 15 15 16 16 16 16 16 15 15 15 15 15 14 14 14 14 14 14
2 4 6 5 3 1 3 1 1 0 4 5 2 5 5 6 6 7 3 1 3 2 3 2 3 2 2 1 1 2 3 4 4 6 10 11 15 19 18 17 15 14 14 14 17 17 13 12 10 8 10 11 12 13 13 13 12 10 9 8 10 13 13 11 10 11 11 11 11 12 12 12 13 13 14 14 14 15 14 14 15 15 15 15 15 15 15 15 14 14 14 14 13 13 13 13 13
2 1 5 6 3 2 4 2 3 3 4 5 4 4 5 7 6 7 4 2 1 1 2 1 3 6 3 1 1 1 3 6 6 10 12 13 18 19 19 17 14 14 14 16 19 17 14 13 11 9 9 10 11 12 13 12 10 10 9 8 10 13 12 9 9 10 10 10 10 11 11 12 13 13 13 13 13 14 13 14 14 14 14 14 14 14 15 14 14 13 13 12 12 12 12 12 12
4 0 1 4 2 3 4 1 3 3 2 3 4 4 5 7 6 7 5 3 2 1 2 1 0 5 1 1 2 2 2 6 7 13 14 15 19 19 19 16 15 15 14 17 20 19 15 14 13 12 10 9 10 11 12 11 10 9 8 8 9 12 12 9 10 10 10 9 9 9 10 11 12 12 12 12 13 13 13 13 13 13 13 13 14 14 13 13 13 12 11 11 11 11 11 11 11
6 3 0 3 2 2 3 2 3 3 3 4 3 3 3 5 4 6 5 1 1 3 3 4 2 4 1 3 1 3 2 7 11 15 14 17 21 19 19 16 14 15 15 17 20 20 17 15 13 13 12 10 9 9 10 10 9 9 8 8 9 11 11 10 10 10 9 9 8 9 9 10 11 12 11 12 12 12 12 12 12 12 12 13 13 13 12 12 11 11 10 11 11 11 10 11 11
5 4 1 2 2 1 4 3 2 2 4 4 3 3 4 5 4 4 4 2 1 4 3 5 1 5 4 2 1 2 3 11 16 15 15 19 20 19 19 15 14 15 16 17 19 20 18 16 14 14 14 13 11 9 10 9 9 9 8 7 7 9 11 11 11 9 8 7 7 8 8 10 11 12 11 11 11 11 11 11 11 10 11 12 12 12 11 10 10 10 10 11 10 10 10 10 10
3 4 2 3 3 1 2 3 3 4 5 4 2 3 5 5 5 3 3 2 1 3 3 2 3 5 5 1 2 1 5 14 17 18 19 20 20 19 18 15 14 14 15 17 18 19 18 17 15 15 14 14 13 10 10 10 10 9 7 5 5 9 11 11 10 9 8 7 7 8 8 10 11 11 11 10 10 11 11 10 10 9 10 11 11 11 10 10 9 9 10 10 9 9 9 9 9
2 3 4 4 2 2 3 2 5 5 6 3 1 3 4 5 5 3 4 5 1 2 4 2 4 5 5 1 2 0 8 15 16 20 21 20 20 19 17 16 15 13 14 15 17 18 17 16 15 15 14 14 13 11 10 10 10 9 7 5 5 10 11 10 10 10 8 8 9 8 9 10 10 12 11 10 10 10 10 10 9 9 9 10 10 10 9 9 8 8 9 9 8 8 8 8 8
3 1 5 2 3 2 3 2 4 4 5 3 3 2 5 5 3 6 7 4 3 4 4 5 5 5 4 2 2 0 9 15 16 21 22 21 20 19 17 16 15 14 14 14 16 16 16 15 15 15 14 14 14 12 11 10 10 8 6 5 6 11 11 10 11 11 9 8 9 8 9 9 8 10 10 10 10 9 10 9 8 8 8 9 9 9 8 7 7 8 8 7 7 7 6 7 7
1 2 4 2 1 2 3 1 4 1 3 5 2 3 4 3 4 7 8 5 5 5 2 4 6 4 2 1 2 2 9 16 18 23 23 22 21 20 18 16 15 14 13 14 15 15 16 16 16 15 13 14 14 13 12 10 9 8 6 4 7 12 11 10 11 11 10 9 8 7 7 6 5 7 8 8 8 8 10 10 9 8 7 8 8 8 7 7 8 8 7 6 6 5 5 4 5
1 2 4 4 2 1 3 1 1 3 4 4 3 4 4 0 4 6 6 7 6 5 1 3 3 1 3 6 4 6 14 19 20 23 23 22 21 21 19 17 16 15 14 14 15 16 16 17 17 15 13 13 13 13 12 11 9 8 6 5 7 12 12 9 10 10 9 8 8 7 6 5 4 5 5 6 8 8 8 8 8 8 7 7 7 7 7 8 9 9 7 6 5 4 3 2 3
2 3 4 3 1 1 3 2 2 2 4 5 1 4 6 1 3 5 4 5 3 1 2 2 2 1 5 7 5 10 19 22 22 23 22 22 21 21 20 19 18 16 15 15 15 16 17 18 18 15 14 13 12 12 12 11 11 9 7 6 6 10 11 8 8 9 8 8 7 7 6 5 4 4 4 6 7 6 5 5 5 6 6 6 6 7 9 9 9 8 7 6 4 3 2 1 1
2 4 4 1 2 2 3 3 3 3 5 5 3 4 8 2 1 2 0 5 5 2 2 2 2 1 4 3 2 14 22 23 24 22 21 22 21 20 18 17 17 16 16 17 16 16 17 18 18 16 15 14 12 11 12 12 12 11 9 7 6 9 10 8 8 8 8 9 8 8 7 5 4 4 4 6 5 4 4 4 4 5 5 5 7 8 9 8 7 6 6 5 4 3 3 2 1
3 3 3 1 3 3 5 6 6 3 2 4 4 5 9 5 2 2 2 5 4 2 3 3 3 3 2 4 3 20 24 25 26 23 22 22 21 21 19 17 17 17 17 19 18 17 18 18 19 17 15 15 13 10 11 13 13 12 11 8 7 8 10 9 8 8 8 9 9 8 7 6 4 3 3 4 3 2 2 3 4 4 4 5 6 7 7 7 6 6 5 4 4 4 3 3 2
3 3 2 3 4 4 5 6 5 3 2 4 5 4 6 7 6 4 2 1 2 4 4 3 3 5 2 2 12 24 26 26 26 25 24 22 23 22 20 19 19 20 20 21 21 19 18 18 19 18 17 15 14 11 11 12 13 13 11 10 9 9 9 9 9 9 9 9 9 8 7 5 4 3 2 2 2 1 1 2 3 3 4 4 5 5 6 6 6 5 4 4 3 3 2 2 1
1 3 0 4 4 4 4 4 6 5 2 4 5 3 3 4 5 4 4 4 3 5 6 1 5 6 1 5 16 24 25 25 24 26 25 24 25 24 23 23 23 25 25 25 23 21 20 19 18 18 17 16 15 14 12 12 12 12 11 10 10 10 9 9 9 9 9 10 9 9 7 6 4 3 3 3 2 1 1 2 2 3 3 3 4 4 5 5 5 4 4 3 3 2 1 1 1
1 3 3 5 1 3 4 4 6 5 2 4 3 4 3 4 3 3 7 6 3 6 8 9 10 9 7 7 14 21 24 23 22 24 26 25 24 23 24 25 25 26 26 25 24 23 22 20 19 18 18 17 16 15 14 13 12 12 11 9 10 11 10 9 9 9 9 10 10 9 8 7 6 4 4 3 3 2 2 2 2 2 2 2 3 3 4 4 4 4 4 3 3 2 2 3 3
0 2 4 5 1 2 5 2 4 4 1 3 5 5 5 3 1 4 10 8 6 7 9 12 10 10 13 13 16 19 20 22 21 22 24 27 25 23 23 22 20 21 23 26 26 25 23 22 20 19 18 18 17 16 15 14 14 13 12 11 10 10 11 10 10 10 10 10 10 10 9 8 7 6 4 3 2 2 2 3 3 2 2 2 3 3 4 4 4 4 4 4 4 3 4 4 6
0 3 2 4 2 3 5 3 3 2 4 5 6 4 4 6 2 3 9 9 5 2 6 9 8 10 15 17 17 16 16 20 22 23 25 27 27 25 23 22 20 20 24 27 27 26 24 23 22 20 20 18 17 16 15 15 15 15 13 12 12 11 11 11 11 11 10 10 10 11 10 9 7 6 4 3 1 1 1 3 3 3 3 3 3 4 5 6 5 5 5 5 5 5 6 7 9
1 3 4 4 1 4 5 4 5 3 6 6 3 1 4 8 4 1 6 10 2 4 4 6 10 12 14 14 15 16 19 22 24 26 27 27 29 28 26 25 24 23 24 27 28 27 26 25 23 22 21 20 19 18 17 17 17 16 15 15 14 13 12 11 11 11 11 11 11 11 10 9 7 6 5 3 1 1 1 2 3 3 4 4 4 4 5 6 6 6 6 6 7 8 8 9 10
1 3 4 5 4 5 6 5 4 4 6 3 3 3 3 5 3 2 8 11 4 4 1 6 10 12 11 11 13 15 18 21 22 23 25 25 26 27 26 26 25 24 24 27 28 29 28 26 25 24 23 22 21 19 19 18 18 17 17 16 15 14 14 12 11 12 13 12 12 12 11 9 8 7 5 4 3 2 2 2 3 3 3 4 4 3 4 4 5 5 6 6 7 8 9 10 11
1 3 4 6 7 7 6 4 2 3 3 3 5 3 1 0 2 3 9 8 3 3 4 6 8 10 10 10 12 13 14 18 20 21 23 23 23 25 26 27 26 25 26 26 27 29 30 28 27 26 25 24 22 21 21 20 19 19 18 17 16 16 15 13 13 13 13 14 14 13 11 10 8 7 6 5 5 3 3 4 4 4 4 4 4 4 3 4 5 6 7 7 8 9 10 11 12
1 3 6 6 7 7 2 3 3 1 1 4 7 2 2 2 1 5 6 2 4 6 4 4 7 9 11 10 10 14 14 18 22 21 20 21 23 26 27 28 27 27 27 26 27 28 29 30 29 28 26 25 24 23 22 21 20 20 19 18 17 16 15 14 15 14 15 15 15 14 12 10 8 7 6 6 6 5 4 5 5 5 5 5 6 6 5 6 7 7 9 9 10 11 11 12 14
4 3 5 7 6 5 3 4 5 2 1 4 7 2 3 2 1 7 5 2 2 6 5 4 7 8 9 10 9 11 14 18 21 20 21 23 25 27 28 29 29 28 28 28 28 28 28 29 30 29 28 27 26 25 24 22 21 20 19 18 17 16 15 15 16 16 16 16 16 15 14 12 9 8 7 6 6 6 6 6 6 6 6 6 7 7 7 7 8 9 10 11 12 12 12 12 13
4 2 4 8 8 6 6 4 4 2 2 5 6 2 3 2 6 8 3 0 1 5 6 5 7 7 6 8 7 8 13 15 17 20 25 27 27 27 29 30 31 31 30 30 30 30 30 30 31 30 29 29 28 27 25 24 23 22 20 19 18 17 16 16 16 17 17 17 16 16 15 13 11 9 8 7 7 6 6 7 7 8 7 7 7 8 8 8 9 9 11 12 13 14 14 13 13
3 2 2 5 7 6 6 1 1 3 3 4 4 2 5 7 12 6 1 4 6 5 5 5 6 6 5 6 6 7 10 14 18 24 28 27 27 28 29 30 31 32 31 31 32 31 31 31 31 30 30 30 29 28 27 26 24 23 22 21 19 18 17 18 17 17 16 16 17 16 15 14 12 11 10 9 8 8 8 8 8 8 8 9 9 8 8 9 9 10 12 14 15 16 17 16 17
1 1 1 2 2 5 7 2 4 5 2 1 4 3 6 8 11 5 3 5 7 7 7 6 6 5 5 5 6 7 9 15 21 24 26 26 27 27 29 29 29 31 30 31 32 32 31 31 31 31 30 30 30 29 28 27 25 24 23 22 21 19 19 19 19 18 16 15 16 16 15 14 13 12 11 10 10 9 9 9 9 9 9 10 10 10 10 11 11 12 14 14 14 16 18 19 19
2 2 2 2 2 5 8 3 4 5 1 1 5 3 6 8 9 4 3 5 7 8 7 7 7 6 7 6 6 7 8 15 19 21 23 25 27 27 29 30 29 31 31 32 32 31 31 31 31 31 31 31 30 30 29 28 26 25 24 23 22 21 20 21 20 20 18 17 16 16 16 15 14 13 12 11 11 11 11 11 11 10 10 10 10 11 11 12 13 14 14 14 15 16 18 20 21
1 2 2 1 2 3 5 3 2 2 2 1 1 3 4 5 5 5 1 5 6 7 8 7 7 7 7 6 7 7 7 10 14 20 25 26 28 29 29 30 30 31 31 32 31 31 32 32 31 31 32 32 31 31 30 29 28 26 25 24 23 23 22 22 22 21 20 19 18 18 17 16 15 14 13 12 11 10 11 11 11 10 11 12 12 12 13 14 13 12 13 15 17 17 18 21 22
1 1 1 2 3 2 3 3 3 2 4 2 3 4 6 6 4 4 2 5 5 7 9 7 6 7 6 6 6 6 7 7 10 20 28 29 30 31 31 31 31 31 31 32 32 32 33 33 33 32 32 32 32 32 31 30 29 28 27 26 26 25 25 24 23 23 22 21 20 19 19 18 17 15 14 13 12 12 12 12 13 13 13 13 13 13 14 16 15 14 15 15 16 16 18 20 20
4 2 1 2 3 4 4 4 3 1 4 4 5 5 10 11 9 5 1 4 6 8 7 5 6 7 6 6 6 7 8 8 14 23 27 28 30 30 31 31 31 31 31 32 32 32 32 32 33 33 33 33 33 32 31 30 30 30 29 28 28 28 28 26 25 25 23 22 22 21 20 19 19 17 16 15 15 14 13 13 14 13 13 12 12 12 13 14 14 13 15 15 14 15 17 19 19
6 4 3 2 4 4 5 4 4 1 3 5 7 7 10 11 12 6 2 3 6 7 7 6 7 6 6 6 6 8 8 11 19 23 22 23 27 29 30 31 31 31 32 32 32 33 33 33 32 33 34 33 33 32 31 31 31 31 31 30 30 30 30 28 27 26 25 24 24 22 21 21 20 19 18 16 17 16 15 15 14 11 11 13 14 14 13 12 10 11 13 14 14 15 17 18 18
6 4 2 3 3 4 4 3 5 2 3 5 6 7 10 10 12 7 1 1 3 6 8 8 8 6 6 7 8 10 10 13 17 17 19 22 26 28 29 29 29 29 31 31 32 34 35 34 34 35 35 33 33 33 33 33 32 31 30 30 30 30 29 29 28 28 27 26 24 23 23 22 21 20 19 18 18 19 18 18 16 15 15 15 15 16 16 12 9 10 12 13 16 16 17 18 18
5 4 1 3 3 4 6 2 5 3 2 4 1 5 10 10 11 8 2 1 5 8 8 9 10 8 7 7 10 10 9 11 12 13 17 21 24 26 28 28 29 30 32 33 34 35 36 36 36 36 35 34 35 35 34 34 34 33 31 30 30 29 29 30 30 29 28 27 25 25 24 22 22 21 19 19 20 21 21 20 20 20 19 19 18 18 19 16 14 13 13 14 16 16 17 15 16
4 3 2 3 3 4 6 3 5 4 1 4 2 3 9 10 11 9 5 6 8 8 9 9 9 8 8 9 11 9 8 10 9 11 16 20 22 24 26 27 30 33 34 34 35 35 35 36 37 37 36 36 36 36 36 36 35 34 33 31 30 29 30 30 30 30 28 27 27 25 25 24 23 22 21 20 21 21 20 20 19 18 17 17 17 17 18 18 17 16 15 16 17 17 16 14 14
5 3 3 3 2 1 3 3 4 3 1 1 1 2 7 7 7 8 7 8 8 8 8 8 7 8 11 10 8 8 10 12 10 10 13 17 20 21 24 28 31 32 32 32 34 35 36 36 37 37 37 37 37 36 37 36 35 33 32 31 30 28 28 28 28 28 28 27 26 25 25 24 23 23 22 21 21 21 19 18 17 15 15 15 14 14 15 15 14 14 15 16 16 17 16 12 11
5 4 4 2 2 3 3 4 4 3 1 1 2 4 6 5 5 8 5 3 6 7 7 8 7 9 10 7 7 9 11 11 11 11 11 13 18 22 26 29 29 30 31 33 35 36 36 37 37 37 38 38 38 37 37 36 34 32 30 28 26 25 25 25 24 25 25 25 25 25 24 23 23 22 19 18 18 17 18 19 18 14 12 12 14 16 17 16 15 14 14 14 15 15 13 10 8
4 4 5 5 4 4 3 4 4 3 3 2 2 2 6 4 4 8 5 3 5 6 5 9 9 8 8 7 10 11 10 10 10 11 11 12 17 22 25 26 27 29 33 35 36 37 37 37 37 38 38 38 38 38 37 36 35 33 31 28 26 24 24 25 25 24 24 24 23 23 23 23 23 22 20 20 16 13 16 17 15 16 15 14 15 19 19 17 14 13 12 12 11 9 7 6 5
3 5 8 7 5 4 4 3 2 0 3 3 2 3 6 5 5 8 4 5 8 7 6 10 9 8 8 9 11 10 9 10 9 10 11 12 16 19 23 27 29 31 34 36 36 36 36 37 37 37 38 38 38 38 37 36 35 34 33 32 31 29 28 28 27 25 24 23 23 22 23 23 23 21 20 22 19 15 18 17 15 19 19 17 17 18 16 12 10 10 9 9 7 5 4 3 2
3 5 10 9 7 7 6 4 3 2 3 3 2 2 4 5 6 5 2 4 9 8 8 10 9 10 10 10 12 11 11 10 9 10 11 13 16 19 23 28 32 34 34 34 34 35 36 37 37 37 37 38 38 37 36 36 36 36 35 35 33 32 32 30 28 26 24 24 24 24 24 21 19 17 16 18 19 17 18 17 16 17 17 15 13 11 9 8 7 7 7 5 4 4 3 2 2
3 5 8 7 6 5 4 4 3 0 2 5 3 2 2 6 6 4 3 4 9 9 9 10 10 11 11 12 12 12 11 9 8 10 10 13 18 23 27 28 29 32 32 31 32 34 35 35 35 35 36 37 37 37 37 37 37 37 36 35 34 34 33 31 27 25 24 23 23 22 21 18 14 13 14 16 17 16 17 16 14 13 13 11 8 7 8 9 7 5 4 4 4 3 2 1 2
3 6 7 5 4 3 2 4 3 2 1 7 5 2 3 6 5 3 2 3 7 9 9 9 10 10 10 10 11 10 9 7 8 10 12 16 20 23 25 25 25 27 28 30 30 31 32 33 33 34 35 35 36 37 37 37 37 37 36 35 34 34 33 30 27 24 23 22 21 19 18 16 14 13 15 16 15 16 16 15 13 10 10 9 9 10 9 9 8 6 5 4 4 3 3 4 6
5 6 6 5 4 4 2 1 3 2 5 7 3 2 1 5 5 4 5 5 6 8 8 8 9 10 9 8 8 8 7 6 7 8 11 16 18 18 19 21 23 23 24 26 28 29 30 32 33 34 35 35 35 36 36 37 37 37 38 37 36 35 33 31 28 25 24 22 21 20 18 16 14 14 14 15 15 16 17 17 16 14 13 13 12 11 10 9 9 8 8 7 6 7 7 8 8
6 4 4 4 1 2 2 3 2 3 6 4 1 2 3 5 6 4 6 6 5 7 7 9 11 10 8 7 7 7 6 6 7 7 9 11 13 14 16 18 20 20 21 24 27 28 30 31 33 34 34 34 34 35 36 37 37 38 38 37 37 36 35 33 31 29 27 25 23 21 18 16 15 14 14 15 15 16 17 18 17 15 14 12 11 11 12 11 11 12 12 11 10 10 10 9 7
5 4 5 4 1 0 2 2 1 4 5 3 1 1 3 7 7 7 9 10 9 9 9 10 11 10 9 7 7 6 5 6 6 6 7 6 8 11 15 17 18 19 22 23 25 27 28 30 31 33 34 34 34 34 35 36 37 37 38 37 37 36 35 35 33 32 30 28 25 23 20 18 17 17 16 16 18 18 18 16 15 14 13 11 11 13 15 15 14 14 14 13 12 10 8 4 3
7 6 6 6 4 4 6 4 1 4 4 2 1 1 3 5 5 10 14 13 12 10 9 10 10 11 10 8 7 7 7 7 6 6 6 6 7 10 14 17 17 19 20 21 22 24 26 27 28 30 32 32 33 34 34 35 36 36 37 37 37 36 35 35 34 33 31 28 26 24 23 21 20 19 19 19 20 19 18 16 15 14 12 12 13 13 14 14 14 14 13 11 8 5 6 8 10
6 5 5 5 5 5 6 4 3 4 3 3 2 1 3 3 3 8 11 10 11 8 7 8 8 9 8 7 8 8 9 8 5 5 5 6 7 8 10 11 12 14 16 17 18 20 22 24 26 28 29 30 31 33 33 34 35 35 35 35 36 36 35 34 33 32 31 28 27 25 24 23 22 21 22 22 21 19 18 16 14 13 13 13 12 11 11 10 10 10 10 10 11 13 13 14 14
3 2 4 4 5 5 3 2 4 3 1 3 3 3 4 4 6 9 6 6 9 9 9 7 8 8 5 6 9 8 8 7 5 5 5 6 7 6 6 6 7 9 11 13 15 17 19 22 24 26 27 28 29 31 32 33 34 34 34 34 34 34 34 33 32 31 30 28 27 25 24 24 23 24 24 22 20 19 18 16 15 14 13 12 10 10 11 12 13 14 16 17 18 17 16 16 14
2 2 4 4 4 6 4 1 1 3 3 4 1 4 5 4 8 9 5 6 9 9 9 7 8 7 5 7 8 7 7 6 5 5 4 5 6 5 6 6 6 7 8 10 11 13 15 18 21 23 24 26 27 28 30 31 32 32 33 33 33 33 33 33 31 30 29 27 26 26 25 25 26 26 24 22 20 19 17 16 16 15 14 12 12 14 16 17 18 19 19 19 19 17 15 15 13
5 5 6 3 3 3 3 2 1 1 5 4 0 4 5 3 6 7 7 8 11 10 7 6 8 6 6 9 9 7 6 5 5 4 4 5 5 5 6 6 6 7 7 8 9 10 12 13 16 19 21 24 25 26 27 29 30 31 32 32 32 32 32 32 31 29 29 28 27 26 27 27 27 26 24 22 20 19 18 17 16 15 15 14 15 17 18 19 20 20 19 18 18 15 13 12 11
4 5 4 4 3 2 2 2 3 3 5 4 3 3 4 5 6 5 7 8 9 10 9 7 8 7 7 9 9 8 6 5 5 4 4 4 5 6 6 6 7 7 7 8 8 10 11 13 14 16 18 19 21 23 24 26 28 29 30 30 31 31 31 30 30 30 29 29 29 28 28 28 27 26 23 21 20 19 19 18 16 16 16 17 18 19 20 21 20 19 18 17 16 13 11 10 9
3 3 2 1 2 4 3 3 3 3 3 3 3 4 4 7 6 5 8 10 9 10 11 9 8 7 7 7 7 7 6 5 5 5 4 4 6 7 7 7 7 7 7 7 8 9 10 12 14 15 16 17 18 19 21 23 25 26 27 28 29 30 30 30 30 30 30 30 30 30 30 29 28 25 22 20 20 20 20 19 17 18 19 21 22 22 23 22 20 18 17 15 14 12 9 8 8
3 3 4 3 1 2 2 1 3 3 3 3 2 5 6 5 4 8 10 12 13 11 8 7 7 7 7 6 6 6 6 6 5 4 4 4 7 9 8 8 8 8 8 8 8 9 9 11 13 14 16 17 18 18 19 21 22 24 25 26 27 28 29 29 29 30 31 30 31 31 31 30 27 24 22 22 22 21 20 19 20 21 23 24 25 24 23 21 19 17 15 13 12 11 9 8 7
6 5 6 6 4 4 3 4 1 2 2 4 2 6 9 5 4 8 10 12 12 7 4 6 7 7 7 6 6 6 6 6 5 5 5 4 7 9 8 8 8 8 9 9 9 9 9 10 11 12 14 15 17 18 19 20 21 22 23 24 26 27 28 29 30 30 31 31 32 31 30 29 26 24 23 23 22 21 21 22 24 25 26 26 26 25 22 19 17 16 15 13 11 10 9 8 7
Wind_Direction
13 10 341 335 352 120 28 52 82 321 69 79 301 116 227 227 194 157 154 163 112 283 227 42 96 123 115 142 158 153 117 150 164 136 202 201 145 160 165 163 160 151 147 145 149 148 141 136 148 156 141 138 134 131 131 126 125 120 110 105 100 93 84 79 83 90 90 87 86 84 86 89 86 85 85 85 85 86 85 84 84 86 86 84 81 81 79 76 75 77 79 81 81 80 78 75 71
15 8 345 21 37 64 277 65 89 335 44 34 283 168 249 282 139 176 186 209 186 168 119 106 97 88 57 92 119 108 60 33 162 171 151 132 144 159 167 164 159 151 146 145 147 146 142 143 155 154 145 142 134 132 130 126 124 116 109 106 100 93 88 83 86 89 85 84 89 89 88 86 84 87 87 87 85 85 87 85 85 86 88 89 88 86 83 79 78 79 80 82 83 81 79 76 72
20 8 346 183 39 44 74 42 81 54 52 305 276 246 250 146 184 200 204 210 181 146 120 96 78 71 35 43 57 70 91 68 133 166 107 135 146 155 164 163 158 150 144 145 145 143 143 146 149 149 148 140 133 133 130 126 120 112 108 105 101 97 94 91 89 88 83 82 90 92 89 85 86 89 87 87 86 86 87 87 87 88 90 92 91 88 84 81 80 81 82 83 83 82 79 75 73
31 16 326 207 40 34 67 38 123 116 35 237 281 274 229 177 194 213 219 197 171 122 73 31 52 15 56 79 55 51 108 138 117 116 128 149 155 156 163 161 155 148 143 145 142 141 144 143 140 142 143 136 133 133 129 122 115 112 109 106 104 101 98 95 92 91 87 87 90 90 88 87 88 88 88 88 88 88 87 86 87 88 90 93 92 88 85 83 81 82 84 86 85 82 78 76 75
58 40 2 186 84 43 96 65 116 98 232 196 254 273 236 200 181 180 184 168 185 143 267 93 95 299 58 98 130 93 161 139 117 124 129 152 160 159 163 158 153 146 143 144 141 143 145 141 134 137 137 135 135 133 127 118 114 113 110 106 101 99 97 99 100 93 92 93 90 88 89 90 89 89 89 88 88 88 87 87 87 88 89 92 94 90 86 85 82 81 83 85 85 82 79 78 77
99 68 41 76 90 110 117 87 162 221 232 172 175 256 228 202 173 157 137 160 251 248 216 163 148 171 74 3 125 143 206 142 128 146 139 152 162 163 162 157 153 146 144 143 144 145 143 140 136 133 130 134 137 132 124 118 121 117 110 100 96 101 100 105 107 96 96 96 91 91 94 92 88 88 89 89 90 91 91 90 90 90 90 93 96 93 89 87 84 83 84 87 88 85 82 79 76
102 109 30 67 64 35 104 149 200 238 241 170 178 241 212 193 168 145 138 164 251 295 169 182 150 126 88 313 91 23 188 148 145 162 160 158 161 163 160 158 153 147 144 144 147 145 143 143 139 138 132 134 138 136 128 127 131 119 111 98 95 108 105 106 103 99 104 101 96 95 98 97 90 88 88 90 91 91 91 89 89 88 88 93 98 98 92 89 87 84 86 91 91 88 85 81 77
61 92 345 83 47 26 86 150 223 220 230 203 207 233 207 179 153 142 164 177 175 211 139 249 235 106 66 25 88 333 134 151 163 168 169 160 160 163 161 160 155 148 146 148 151 150 150 149 148 154 148 136 137 141 135 133 134 119 114 102 99 112 110 108 104 104 109 104 100 97 103 104 96 93 92 92 92 90 90 88 88 88 87 92 99 101 94 90 89 84 88 95 91 87 85 82 78
44 40 249 80 90 38 38 316 276 245 246 272 251 226 193 157 137 132 162 213 172 162 161 254 266 120 131 35 40 296 78 147 158 163 168 159 161 164 162 164 158 150 149 153 157 158 158 157 158 164 159 149 143 144 139 134 133 122 117 109 104 114 115 114 112 114 114 108 106 106 105 100 98 99 96 96 96 93 92 91 91 90 91 97 102 104 98 93 92 88 93 95 90 87 85 82 79
34 26 139 76 93 39 339 294 286 279 256 268 254 212 170 150 132 117 140 180 160 142 207 271 25 109 128 71 276 312 107 149 151 157 165 161 162 166 164 166 162 152 153 158 163 165 165 164 164 166 164 159 155 153 148 142 135 126 125 120 109 122 126 122 120 118 115 113 106 104 101 98 102 103 100 100 99 97 96 96 95 93 97 102 104 107 104 97 95 95 96 94 88 86 83 78 75
31 360 90 79 72 105 261 254 281 280 278 292 270 218 176 151 124 98 98 127 8 121 210 305 81 116 96 56 264 316 157 157 155 158 163 165 166 167 165 166 164 156 156 160 166 171 172 171 169 169 168 164 164 163 156 152 145 139 144 137 117 130 131 128 130 123 118 127 120 115 113 111 114 111 107 104 102 101 99 97 96 95 100 102 104 111 108 102 102 104 104 96 88 83 77 73 70
80 341 61 87 131 194 203 221 281 288 306 322 180 221 163 130 122 154 133 141 163 139 227 236 142 135 83 335 270 8 170 167 164 163 166 169 167 168 168 167 164 160 160 162 168 174 177 176 174 174 175 169 168 168 160 159 158 154 155 146 132 133 132 136 139 131 133 140 135 135 129 121 121 119 111 108 108 106 106 103 101 100 102 104 109 112 110 108 109 114 114 102 91 81 72 68 66
114 131 88 109 167 159 161 186 284 320 323 272 185 205 141 129 176 187 147 129 152 151 245 218 149 108 97 235 270 228 184 182 172 166 169 170 169 169 169 168 164 162 163 165 169 173 176 176 176 176 178 172 169 172 167 163 166 164 162 159 147 140 143 154 149 144 155 157 148 145 140 130 124 126 122 122 123 119 120 112 103 101 102 109 110 109 115 121 122 127 126 113 101 87 73 65 61
108 155 113 124 91 115 160 182 290 241 270 259 194 174 145 146 196 172 137 132 192 188 245 189 147 104 112 203 273 239 192 190 176 170 172 171 172 170 171 170 165 166 165 169 170 172 173 172 173 174 177 171 169 176 177 174 173 173 174 173 157 155 158 165 166 165 168 167 161 158 156 147 129 128 127 128 130 125 121 114 109 104 104 113 115 117 126 130 134 141 140 134 125 106 86 66 54
91 139 89 110 45 3 183 235 257 156 240 236 162 158 146 153 146 148 157 156 212 232 131 143 152 150 179 167 212 218 187 186 176 170 173 173 175 172 173 171 168 171 169 172 172 172 173 172 173 174 176 170 171 179 183 184 184 188 187 178 165 168 169 166 176 181 176 168 163 166 170 163 139 127 118 119 125 121 112 111 120 117 112 122 125 122 122 126 137 145 148 148 143 131 115 77 44
109 109 64 100 120 313 206 206 127 129 250 227 182 144 142 269 127 148 208 149 161 257 84 174 196 329 179 172 217 201 180 179 172 171 173 173 174 173 174 171 172 175 173 177 176 174 174 175 177 177 179 175 177 180 183 189 194 201 196 180 168 174 176 170 176 182 183 180 172 171 176 171 154 135 115 121 126 117 94 91 117 122 121 128 125 118 119 127 136 143 147 149 150 149 144 121 39
61 78 66 51 159 205 204 185 175 170 249 247 263 172 155 223 344 157 226 89 116 137 355 262 255 359 179 222 269 175 173 173 170 170 170 170 170 168 169 170 172 176 178 181 180 178 178 179 181 182 183 182 183 183 186 191 195 200 195 185 169 172 180 179 178 178 181 184 182 179 182 182 169 150 129 133 134 118 88 79 95 110 115 121 121 122 126 130 135 139 141 142 143 139 135 131 110
38 74 99 205 183 199 187 183 197 178 234 228 227 197 167 180 190 169 75 48 62 123 309 309 304 328 240 278 159 161 168 170 170 169 168 169 170 166 167 172 175 179 182 184 185 183 181 183 184 187 188 187 188 187 188 190 194 197 197 194 177 171 178 183 184 180 183 183 185 185 184 185 174 163 143 142 146 130 101 88 88 99 105 113 121 128 131 134 137 141 140 133 130 125 124 125 120
68 109 100 224 203 214 197 182 191 200 248 189 213 220 187 190 169 156 165 227 80 153 260 339 313 307 335 214 155 158 165 168 171 172 172 172 174 173 171 176 181 184 186 187 188 186 185 185 185 189 191 191 194 192 188 188 192 198 201 199 184 177 176 183 188 185 188 186 187 189 187 188 184 182 168 162 164 151 135 119 107 106 114 121 131 141 142 144 146 147 143 134 130 128 128 127 127
96 115 14 245 224 260 238 192 203 227 207 161 209 207 198 208 157 160 171 168 158 185 220 205 235 247 182 163 158 158 163 169 175 176 178 180 182 182 179 181 187 189 190 190 189 189 189 189 189 190 191 193 195 195 193 188 188 192 195 195 190 185 180 183 190 191 191 190 192 194 194 196 194 195 193 196 196 197 202 175 148 125 128 138 147 160 161 158 158 161 162 157 156 159 180 240 295
86 136 195 241 220 314 272 213 233 250 207 176 183 138 197 222 153 172 147 138 239 238 219 201 206 197 167 172 166 162 164 171 179 181 184 186 187 189 189 190 191 192 192 192 192 192 193 193 193 192 192 194 195 197 196 193 191 190 189 190 192 192 190 188 190 193 193 193 195 195 195 191 185 183 180 185 193 204 214 209 197 160 149 161 168 182 190 187 183 188 192 191 193 206 238 267 288
41 221 209 241 207 292 277 231 250 256 190 153 150 167 189 168 153 185 159 166 227 232 218 208 200 174 166 170 170 168 168 175 181 185 188 190 193 194 196 197 196 195 194 195 195 196 196 196 197 195 196 196 195 197 197 198 198 197 195 192 193 195 197 196 193 193 193 194 193 192 189 184 181 176 170 171 179 200 216 222 223 215 214 206 211 220 217 218 221 222 222 224 235 253 269 288 305
281 281 289 261 188 244 287 345 281 215 138 168 184 219 150 134 213 192 180 202 204 240 233 203 188 172 168 164 165 172 174 180 185 188 190 191 195 197 198 199 199 199 198 200 199 198 199 199 200 200 200 200 198 198 199 202 203 204 203 201 201 198 198 200 199 196 194 195 194 192 189 189 190 187 186 180 182 246 247 237 232 238 246 240 247 243 233 236 240 243 249 254 266 285 299 311 321
161 263 329 311 237 249 275 322 291 199 177 205 192 212 152 168 206 114 215 228 219 330 281 179 159 156 161 162 170 179 181 186 189 191 193 194 197 200 201 201 202 202 202 203 202 201 202 201 202 202 204 205 203 201 202 205 206 207 206 208 209 204 205 205 205 204 203 203 202 201 201 205 208 209 211 206 230 300 308 261 250 259 265 261 265 258 248 247 251 259 266 273 285 298 311 321 325
182 248 316 314 292 280 281 292 286 206 201 215 129 167 201 186 168 145 234 240 275 338 33 136 139 143 160 175 183 185 185 190 191 193 196 199 201 203 205 206 206 205 206 205 204 205 205 204 205 205 206 207 208 208 207 208 209 209 209 211 212 210 212 211 211 213 213 215 214 213 214 217 222 226 231 237 253 292 319 294 288 302 303 284 280 281 270 266 273 280 286 293 301 307 314 322 327
192 271 300 302 298 303 301 288 268 202 203 161 158 192 304 208 157 247 246 228 214 50 89 133 137 149 171 184 190 190 189 191 192 194 197 201 204 206 209 210 209 208 209 209 206 207 207 207 207 207 208 208 210 212 212 213 213 213 212 214 214 215 217 216 216 217 220 222 224 225 225 225 229 235 245 257 265 282 300 298 301 309 319 312 310 318 310 307 309 308 310 311 314 316 319 324 330
302 273 280 277 289 299 300 288 277 215 214 169 167 188 305 315 334 249 266 230 139 104 103 159 154 166 180 186 195 193 196 196 194 192 194 200 204 206 209 210 210 212 212 212 210 210 209 209 209 209 210 210 212 214 216 216 216 217 217 217 218 221 222 222 222 222 223 225 229 232 234 235 235 240 249 260 270 275 282 291 298 302 312 318 318 321 319 319 321 321 323 324 322 322 325 328 330
312 292 297 292 315 307 252 265 271 196 160 173 143 125 287 349 296 233 263 331 149 135 146 188 182 185 186 187 193 195 203 204 195 191 194 201 204 206 209 210 210 213 215 214 214 212 212 212 212 211 211 212 214 216 219 219 219 220 220 221 223 225 228 228 228 226 226 227 230 233 237 241 241 244 249 258 271 274 276 280 284 290 301 311 311 311 311 312 318 324 326 326 323 321 322 324 325
302 7 344 314 346 321 258 242 251 178 178 196 139 104 284 230 230 242 266 286 127 136 164 198 201 201 195 191 194 201 209 205 198 201 204 206 207 208 211 213 212 214 216 217 219 217 215 215 214 214 213 213 215 217 221 222 222 223 223 225 226 228 229 231 231 229 227 228 229 232 237 240 241 244 248 258 266 269 274 277 282 288 292 294 297 301 304 306 311 319 325 324 321 319 317 317 319
278 21 40 323 348 310 274 260 211 148 170 215 159 216 263 241 240 242 152 149 120 139 192 205 212 210 202 199 202 211 211 205 206 211 212 210 210 212 215 217 215 216 218 218 221 222 220 219 218 218 216 215 217 219 222 224 224 225 227 228 229 230 230 232 233 231 228 227 228 231 234 238 241 244 249 255 259 265 271 275 283 292 294 291 291 295 298 303 306 312 318 316 316 318 315 313 313
296 313 39 347 323 277 292 288 162 147 182 220 140 208 257 254 254 241 181 166 149 186 210 202 214 216 207 208 209 218 217 213 217 218 217 216 214 215 218 219 219 219 219 219 221 224 224 223 222 221 220 219 219 220 223 226 227 228 229 231 231 232 233 234 236 234 232 229 228 229 232 237 241 246 250 252 257 266 271 277 285 292 294 293 293 293 295 298 298 303 304 302 307 308 303 304 305
61 222 276 352 198 267 304 288 172 158 227 39 132 200 265 263 267 274 217 184 176 204 214 206 211 212 211 213 214 222 226 224 228 229 226 223 220 220 221 222 222 220 220 221 222 223 224 225 225 225 224 224 224 224 225 228 231 232 233 235 236 236 237 238 238 239 239 236 234 234 236 239 241 247 250 249 255 262 270 278 282 283 286 291 294 291 290 290 288 288 288 291 299 299 296 299 302
47 190 235 276 199 273 310 297 245 150 112 357 180 200 263 267 278 328 316 188 197 217 221 216 212 217 216 213 218 222 231 233 234 235 230 226 225 224 224 225 225 225 224 224 224 224 225 226 227 227 228 228 228 228 229 231 234 236 237 238 240 241 241 242 242 242 242 241 240 240 240 241 243 248 250 250 254 262 273 276 275 278 281 288 294 295 296 297 294 287 285 290 292 293 298 302 305
209 70 205 247 210 228 283 277 275 75 101 189 223 217 242 253 266 324 8 173 199 230 229 225 219 226 227 223 230 229 231 235 234 234 230 226 226 226 226 227 228 229 229 228 227 226 227 228 228 230 231 231 232 232 233 234 236 238 240 241 242 243 243 245 245 244 244 244 244 244 244 244 246 249 252 254 256 263 274 275 274 279 281 283 285 291 299 298 297 295 296 298 293 292 296 299 303
172 146 107 271 243 216 260 267 244 112 101 180 192 227 251 262 268 273 64 155 191 234 246 248 236 229 233 233 235 236 235 240 238 235 232 229 228 228 228 229 229 230 230 230 229 229 229 229 230 231 231 232 232 234 235 236 238 239 240 241 242 243 244 245 245 245 246 246 246 246 246 246 248 250 254 259 260 262 269 272 272 278 280 280 275 282 299 296 290 291 295 296 292 289 288 291 297
155 161 147 229 257 240 242 256 272 170 129 198 195 220 246 256 262 252 93 133 194 244 266 259 250 232 231 234 233 239 235 239 242 240 240 237 233 231 229 229 230 231 231 231 231 230 230 229 229 230 231 232 232 232 233 234 235 236 237 238 239 240 242 243 245 247 247 247 247 247 247 247 247 247 252 259 259 259 267 271 268 270 275 278 275 279 295 294 285 287 290 292 291 287 285 288 292
137 133 155 241 264 278 267 275 312 339 156 234 211 226 248 251 261 255 108 62 230 250 254 249 251 239 232 232 234 237 233 242 249 247 246 243 239 236 232 230 230 231 232 231 231 230 230 229 229 230 230 230 230 230 231 231 231 231 233 234 235 237 240 242 245 246 247 248 248 247 246 247 246 248 253 256 254 255 264 270 268 267 269 272 274 276 281 274 267 282 284 286 289 289 291 289 288
122 134 175 276 245 259 274 279 318 335 180 267 257 236 258 257 264 263 163 213 251 233 234 245 242 236 235 235 238 239 241 254 256 251 245 241 239 236 232 230 228 228 230 229 229 230 230 229 229 230 230 229 230 230 230 231 231 231 232 233 235 237 240 242 244 246 247 248 248 247 245 246 248 251 255 257 257 256 260 264 266 267 269 271 271 270 272 267 265 276 279 284 287 291 298 291 287
157 137 131 265 261 279 289 300 333 356 173 284 345 227 261 262 263 264 207 215 248 228 222 235 232 233 236 231 237 240 247 259 253 245 243 237 235 232 229 228 227 228 229 228 228 229 228 228 228 229 229 229 230 230 231 232 234 235 236 238 239 241 244 246 247 248 249 247 246 245 245 248 251 253 254 255 259 261 263 266 267 270 271 271 271 267 269 274 272 270 273 281 286 289 294 291 294
191 157 144 239 280 313 306 333 343 354 124 269 332 268 273 268 273 275 231 214 250 249 234 241 231 229 236 236 239 231 234 247 248 245 242 236 233 228 225 226 227 227 226 226 226 227 226 227 227 228 228 229 230 231 232 233 235 237 237 239 241 243 246 249 249 247 246 246 245 244 245 249 253 256 253 249 255 260 261 263 263 263 265 265 267 266 268 276 275 270 271 279 286 284 282 287 299
207 187 165 194 246 235 268 318 316 315 8 51 9 321 286 264 268 272 256 215 258 264 256 260 251 237 247 265 257 233 228 236 240 242 239 230 227 226 225 226 227 224 223 225 226 225 225 226 228 228 228 229 230 231 233 233 232 232 232 232 234 237 240 242 241 240 240 241 243 243 246 250 254 257 253 247 254 259 252 254 257 251 250 253 259 263 265 269 271 270 270 277 288 285 278 283 294
221 209 174 184 229 253 292 323 341 5 337 343 26 297 274 295 281 252 267 327 275 270 266 258 257 250 248 257 252 241 237 237 235 242 243 230 225 227 228 227 225 223 225 228 228 227 226 227 229 228 228 229 230 232 232 231 229 227 225 223 224 226 230 233 234 235 237 239 241 243 247 252 254 254 253 247 245 250 246 248 255 251 243 242 255 266 269 271 270 267 267 276 288 282 273 282 286
227 204 170 185 223 254 271 282 326 357 268 308 65 214 260 309 288 247 272 322 284 279 275 260 259 257 242 239 246 242 239 238 234 239 243 235 226 224 226 226 223 224 230 231 228 227 226 228 229 228 228 229 230 231 230 229 227 226 225 224 225 224 227 232 235 237 239 241 242 245 248 251 253 249 249 249 243 245 251 247 247 251 246 243 257 266 268 272 270 264 268 277 279 262 252 252 239
214 180 156 174 204 232 238 224 225 237 277 316 30 157 257 279 261 256 325 318 290 285 275 266 258 251 244 239 243 241 236 233 231 235 236 235 229 223 225 227 226 228 232 230 227 226 226 227 228 228 228 229 230 229 229 228 227 225 225 225 227 227 230 234 236 236 238 240 242 247 250 252 255 247 240 248 248 245 253 252 248 255 254 249 255 260 263 275 274 265 266 262 247 237 234 209 182
217 150 138 162 180 202 202 176 207 283 3 296 280 138 238 263 271 310 351 270 274 280 270 264 256 246 242 241 242 242 241 237 232 236 235 234 230 228 230 231 232 232 231 229 228 227 227 226 226 227 228 228 228 228 228 228 228 228 226 225 226 228 232 234 234 235 235 239 243 246 250 250 252 247 236 245 250 242 248 254 251 253 248 237 243 264 270 272 264 244 232 222 208 199 185 205 291
195 124 99 84 87 86 118 153 161 76 307 251 234 184 235 262 273 304 316 242 252 265 264 258 255 251 243 245 249 250 253 248 238 239 241 239 235 234 235 236 236 234 231 231 230 228 227 226 225 225 226 227 227 228 227 228 228 227 225 224 225 227 229 230 230 231 232 235 239 240 244 243 241 242 237 236 238 237 243 251 250 246 236 231 255 271 259 243 237 223 208 209 216 233 256 281 294
135 108 79 67 59 40 44 72 94 104 260 255 224 168 214 272 272 228 218 221 216 234 257 262 260 259 254 250 255 258 262 261 254 252 253 249 246 241 238 236 236 235 233 232 230 228 226 225 225 225 226 226 226 226 226 227 227 226 225 225 226 226 227 226 224 225 226 228 231 235 238 237 236 239 234 227 230 234 234 232 234 238 239 239 248 249 234 227 236 235 233 237 249 263 273 280 281
129 110 106 108 48 17 24 5 52 192 251 285 314 108 153 240 258 232 239 255 227 217 240 256 259 263 266 264 263 262 264 273 275 268 263 259 252 242 234 232 233 230 228 227 226 226 224 224 224 224 225 225 225 226 225 226 226 225 226 225 226 227 226 225 224 224 225 225 227 231 230 226 227 228 225 226 229 226 218 213 216 223 225 226 231 235 238 247 248 243 243 248 255 262 266 267 260
147 134 131 134 95 25 228 269 258 230 254 296 297 130 200 240 252 256 265 273 259 233 225 240 254 262 269 271 271 272 272 279 281 271 264 260 248 237 229 227 226 223 223 224 223 223 222 222 221 221 223 224 224 225 225 225 225 225 226 225 226 227 226 227 227 227 227 226 226 226 221 217 215 214 216 220 218 213 211 213 217 219 220 232 247 247 246 248 245 241 242 245 249 252 250 237 180
172 162 156 160 152 171 209 214 249 256 256 271 255 205 262 275 266 244 244 252 257 247 231 233 245 254 263 274 283 285 281 275 270 266 262 253 245 237 228 224 223 222 221 222 221 221 220 220 220 220 223 223 223 224 225 225 225 226 227 227 227 227 226 227 228 228 228 228 227 226 223 219 215 216 216 212 210 210 211 213 214 219 232 247 249 242 238 237 234 233 232 229 219 188 149 123 114
182 163 145 166 170 173 194 194 212 238 258 281 276 216 215 213 258 242 233 254 274 272 254 246 251 256 263 281 284 279 276 271 258 254 257 257 257 248 234 225 221 220 219 219 219 220 220 220 220 221 222 223 223 223 224 224 226 227 227 228 228 227 228 228 228 229 229 228 227 225 224 221 219 219 215 209 209 210 210 210 215 226 237 236 229 223 220 211 202 196 182 162 141 127 123 117 112
213 134 129 194 188 145 128 180 185 174 245 258 226 232 217 207 280 277 247 264 280 273 267 264 261 263 266 275 272 266 267 268 256 250 257 267 270 261 243 223 211 209 210 214 218 220 221 222 222 223 224 225 224 224 224 225 226 227 227 227 228 228 228 228 227 226 227 227 227 225 222 219 217 215 210 208 209 208 208 213 219 222 221 214 199 181 169 157 148 143 137 133 127 123 124 121 119
162 148 183 197 151 123 118 211 71 88 229 247 199 255 286 313 292 291 293 283 279 270 267 266 264 271 278 268 264 260 260 260 256 248 249 268 278 268 248 227 212 208 209 215 218 221 224 225 225 226 225 225 224 225 225 226 227 227 227 227 227 227 226 225 225 224 223 223 223 221 218 214 211 208 206 207 208 206 208 212 212 207 202 193 172 155 149 143 139 134 132 131 127 127 130 127 126
138 184 199 140 97 106 117 183 357 94 230 264 325 245 282 295 269 309 331 286 272 273 269 267 272 275 269 261 259 262 263 261 265 261 256 270 275 260 243 229 224 223 224 225 224 226 228 229 229 229 228 227 227 227 226 227 227 227 227 227 226 226 225 224 224 223 222 219 215 214 212 208 204 202 202 204 203 203 204 203 202 197 189 177 163 154 148 143 142 139 136 135 131 133 136 130 129
137 181 193 139 148 201 130 168 193 182 231 274 312 279 268 224 229 308 310 261 261 283 288 283 275 262 254 261 266 272 274 267 262 255 252 260 256 244 232 225 227 228 230 232 231 234 234 235 236 234 234 233 231 230 229 228 227 227 228 227 225 224 223 222 221 219 218 215 212 209 206 203 201 199 200 201 201 202 199 195 194 190 180 170 162 156 151 147 147 144 141 138 135 137 139 133 131
66 114 175 160 154 177 171 164 169 174 219 254 304 312 262 224 207 217 255 260 256 264 272 273 271 262 254 260 271 280 279 264 252 239 236 241 235 229 218 217 223 224 228 233 236 241 241 241 241 239 238 236 233 232 229 227 226 225 225 224 222 220 219 218 217 215 214 212 209 205 200 199 198 197 199 202 202 200 196 192 188 181 172 165 161 156 152 151 150 146 143 141 139 141 143 138 133
148 147 174 192 137 129 159 158 132 138 178 203 281 289 260 243 206 191 220 253 255 252 262 264 266 271 267 268 279 287 282 268 259 242 234 237 232 223 212 213 219 220 227 232 236 242 243 242 241 238 237 234 231 230 227 226 224 221 221 220 218 216 215 214 214 212 210 207 203 199 197 196 195 196 200 201 199 197 194 188 179 171 165 160 159 156 154 155 153 149 147 146 146 148 147 139 132
170 174 187 179 145 124 167 232 245 92 172 180 191 272 268 241 199 201 210 231 251 274 298 272 267 275 284 296 295 287 282 270 261 248 238 242 237 226 215 215 219 223 230 234 237 240 241 243 243 240 236 233 229 225 221 220 220 218 217 217 215 213 211 210 208 206 203 200 197 195 194 193 193 196 198 198 195 191 186 178 170 164 161 159 158 157 156 157 156 153 151 150 151 150 146 138 131